#timestamp,LO_Frequency,Hit,StdDev 
1634335215.8,286046998.5,N
1634335235.6,286047000.9,N
1634335255.5,286046999.8,N
1634335275.3,286047000.2,N
1634335295.1,286047001.1,N
1634335315.9,286047000.1,N
1634335335.7,286047000.3,N
1634335355.5,286047000.1,N
1634335375.4,286047002.3,N
1634335395.2,286047002.2,N
1634335415.1,286047003.9,N
1634335416.0,286047003.9,N
1634335435.8,286047001.6,N
1634335455.6,286047001.4,N
1634335475.5,286047003.5,N
1634335495.3,286047001.6,N
1634335515.1,286047001.8,N
1634335535.9,286047002.0,N
1634335555.7,286047001.9,N
1634335575.6,286047004.2,N
1634335595.4,286047004.3,N
1634335615.2,286047003.3,N
1634335635.1,286047003.3,N
1634335636.0,286047003.3,N
1634335655.8,286047003.2,N
1634335675.6,286047002.9,N
1634335695.5,286047005.2,Y
1634335715.3,286047003.1,P
1634335735.2,286047004.3,P
1634335755.9,286047003.9,P
1634335775.7,286047004.1,Y
1634335795.6,286047000.5,P
1634335815.4,286047000.2,N
1634335835.3,286047002.2,N
1634335855.1,286046999.8,N
1634335856.0,286046999.8,N
1634335875.8,286047002.6,N
1634335895.7,286047000.2,N
1634335915.5,286047001.1,N
1634335935.3,286047001.2,N
1634335955.2,286046998.3,N
1634335975.0,286046998.5,N
1634335975.9,286046998.5,N
1634335995.8,286046998.8,N
1634336015.6,286046998.3,N
1634336035.4,286047000.7,N
1634336055.3,286046998.2,N
1634336075.1,286046998.1,N
1634336095.8,286047000.9,N
1634336115.7,286047000.4,N
1634336135.5,286047001.0,N
1634336155.4,286047000.0,N
1634336175.2,286047000.5,N
1634336195.0,286047000.5,N
1634336195.9,286047000.5,N
1634336215.8,286047000.9,N
1634336235.6,286046999.7,N
1634336255.4,286047000.6,N
1634336275.3,286047001.2,N
1634336295.1,286046998.9,N
1634336315.9,286047000.8,N
1634336335.7,286047000.9,N
1634336355.5,286047000.0,N
1634336375.4,286047002.8,N
1634336395.2,286047002.2,N
1634336415.1,286047001.8,N
1634336416.0,286047001.8,N
1634336435.8,286047001.3,N
1634336455.6,286047000.1,N
1634336475.5,286047004.2,Y
1634336495.3,286047002.1,P
1634336515.1,286047002.1,N
1634336535.9,286046999.7,N
1634336555.7,286047002.0,N
1634336575.6,286047000.4,N
1634336595.4,286046999.4,N
1634336615.2,286046999.3,N
1634336635.1,286046995.3,Y
1634336636.0,286046995.3,P
1634336655.8,286046995.5,N
1634336675.7,286046996.3,N
1634336695.5,286046995.5,N
1634336715.3,286046995.0,N
1634336735.2,286046998.7,N
1634336755.9,286046999.5,N
1634336775.7,286046999.3,N
1634336795.6,286047000.7,N
1634336815.4,286047000.8,N
1634336835.2,286047001.2,N
1634336855.1,286047000.0,N
1634336856.0,286047011.9,Y
1634336875.8,286047001.8,P
1634336895.7,286047001.7,N
1634336915.5,286047004.0,N
1634336935.3,286047004.4,N
1634336955.2,286047002.8,N
1634336975.0,286047001.9,N
1634336975.9,286047001.9,N
1634336995.8,286047002.5,N
1634337015.6,286046999.7,N
1634337035.4,286047000.9,N
1634337055.3,286047000.1,N
1634337075.1,286047002.3,N
1634337095.8,286046999.8,N
1634337115.7,286047004.4,N
1634337135.5,286047001.5,N
1634337155.4,286047003.9,N
1634337175.2,286047001.9,N
1634337195.0,286047004.2,N
1634337195.9,286047004.2,N
1634337215.8,286047004.2,N
1634337235.6,286047002.3,N
1634337255.4,286047001.8,N
1634337275.3,286047002.5,N
1634337295.1,286047004.0,N
1634337315.9,286047003.8,N
1634337335.7,286047003.0,N
1634337355.5,286047003.1,N
1634337375.4,286047003.2,N
1634337395.2,286047003.8,N
1634337415.0,286047003.8,N
1634337415.9,286047003.8,N
1634337435.8,286047005.0,Y
1634337455.6,286047001.6,P
1634337475.5,286047002.4,P
1634337495.3,286047002.6,P
1634337515.1,286047001.6,Y
1634337535.9,286047001.1,P
1634337555.7,286047000.3,N
1634337575.5,286046999.7,N
1634337595.4,286047002.6,N
1634337615.2,286047002.7,N
1634337635.1,286047000.6,N
1634337636.0,286047000.6,N
1634337655.8,286047000.7,N
1634337675.6,286047001.1,N
1634337695.5,286046998.4,N
1634337715.3,286047002.8,N
1634337735.1,286047000.0,N
1634337755.9,286046999.8,N
1634337775.7,286047000.0,N
1634337795.6,286046999.4,N
1634337815.4,286046997.3,N
1634337835.2,286046999.5,N
1634337855.1,286046998.1,N
1634337856.0,286046998.1,N
1634337905.8,286046998.3,E
1634337915.8,286046998.1,N
1634337935.6,286047002.7,P
1634337955.4,286047002.4,N
1634337975.3,286046999.8,N
1634337995.1,286047000.2,N
1634338015.9,286047002.1,N
1634338035.7,286047001.6,N
1634338055.5,286047000.0,N
1634338075.4,286047003.9,N
1634338095.2,286047003.9,N
1634338115.0,286047007.5,Y
1634338115.9,286047007.5,P
1634338135.8,286047007.0,N
1634338155.6,286047004.1,N
1634338175.5,286047003.7,N
1634338195.3,286047003.4,N
1634338215.1,286047003.7,N
1634338235.9,286047002.8,N
1634338255.7,286047000.9,N
1634338275.6,286047004.3,N
1634338295.4,286047014.9,Y
1634338315.2,286047012.0,P
1634338335.1,286047012.4,P
1634338336.0,286047012.4,P
1634338355.8,286047013.6,Y
1634338375.7,286047004.5,P
1634338395.5,286047005.4,N
1634338415.3,286047003.7,N
1634338435.2,286047002.1,N
1634338455.9,286047000.5,N
1634338475.7,286046999.9,N
1634338495.6,286047001.2,N
1634338515.4,286046996.9,N
1634338535.2,286046999.6,N
1634338555.1,286046999.3,N
1634338556.0,286046999.3,N
1634338575.8,286046995.3,N
1634338595.7,286046993.9,N
1634338615.5,286046997.2,N
1634338635.3,286046995.4,N
1634338655.2,286046997.5,N
1634338675.0,286047005.7,N
1634338675.9,286047005.7,N
1634338695.8,286047005.4,N
1634338715.6,286047002.1,N
1634338735.4,286047000.7,N
1634338755.3,286046998.7,N
1634338775.1,286046999.1,N
1634338795.8,286047004.7,N
